Погода в Лехе

Австрия     47°12′41″N   10°08′38″E
темп.,
°C
ветер,
м/с
пор.,
м/с
влажн.,
%
обл.,
%
осадки,
мм/ч
давл.,
гПа
погр.,
м
4 декабря, сб
сб401:00−5ююв4357100 0.0 101022
04:00−4ю4364100 0.1 100732
07:00−3ююз3366100 1.3 100735
10:00−1ююз3470100 1.0 100468
13:00−1ююз3497100 3.8 1003164
16:00−1юз229297 0.9 100129
19:00−2ссз2399100 7.0 1002159
22:00−3з3498100 8.3 1004289
5 декабря, вс
вс501:00−6зсз2297100 14.7 100959
04:00−8ююв1196100 1.5 100917
07:00−9юв1195100 1.8 100812
10:00−7сз1296100 1.8 1006166
13:00−6сз2294100 3.9 1006355
16:00−7сз2297100 0.8 100658
19:00−8сз1197100 1.8 100817
22:00−11ю1197100 0.4 101010
6 декабря, пн
пн601:00−13ю119894 0.4 101210
04:00−15ююв229832 0.1 101410
07:00−16ююв329551 0.1 101610
10:00−9ююв118828 0.0 101430
13:00−7зсз11765 0.0 1012336
16:00−12ююз119618 0.0 101610
19:00−15ююв339024 0.0 101812
22:00−13ююв3276100 0.0 101513
7 декабря, вт
вт701:00−11зюз1171100 0.0 101411
04:00−9ююз3388100 0.3 101447
07:00−8з2296100 4.3 1015102
10:00−7зсз2396100 6.1 1016286
13:00−7з228269 7.0 1017447
16:00−12ю22885 0.0 101910
19:00−16ююв43798 0.0 102113
22:00−15ююв53685 0.0 101919
8 декабря, ср
ср801:00−14ююв54532 0.0 101623
04:00−11ююв4358100 0.0 101329
07:00−8ююв3366100 0.1 100931
10:00−7ю3364100 0.0 100949
13:00−4ююв115660 0.4 1005172
16:00−7в1191100 0.4 100610
19:00−8ююв2294100 0.9 100716
22:00−8юв1196100 0.9 100612